Regional Weather Roundup
Issued by NWS

Home | Current Version | Previous Version | Graphics & Text | Print | Product List | Glossary On
Versions: 1 2 3 4 5 6 7 8 9 10 11 12 13 14 15 16 17 18 19 20 21 22 23 24 25 26 27 28 29 30 31 32 33 34 35 36 37 38 39 40 41 42 43 44 45 46 47 48 49 50
000
ASUS45 KCYS 261210
RWRWY

WYOMING REGIONAL WEATHER ROUNDUP
NATIONAL WEATHER SERVICE CHEYENNE WY
500 AM MST FRI DEC 26 2014

NOTE:  "FAIR" INDICATES FEW OR NO CLOUDS BELOW 12,000 FEET
WITH NO SIGNIFICANT WEATHER AND/OR OBSTRUCTIONS TO VISIBILITY.

WYZ001-261300-
YELLOWSTONE NATIONAL PARK

CITY           SKY/WX    TMP DP  RH WIND       PRES   REMARKS
LK YELLOWSTONE   N/A      1  -3  83 CALM      29.84S
6HR MIN TEMP:  -4; 6HR MAX TEMP:   7;

W YELLOWSTONE  NOT AVBL

$$
WYZ002>013-054>058-071-098>099-261300-
NORTHERN WYOMING

CITY           SKY/WX    TMP DP  RH WIND       PRES   REMARKS
JACKSON        FAIR       7   3  85 N16       29.85R WCI -11
CODY           CLOUDY    16  12  86 W3        29.94S
GREYBULL       LGT SNOW  17  16  95 S3        30.00R FOG
6HR MIN TEMP:  17; 6HR MAX TEMP:  20; 6HR PCP:  0.01;

WORLAND        CLOUDY    16  13  88 SW5       29.98S WCI   9
6HR MIN TEMP:  14; 6HR MAX TEMP:  19; 6HR PCP: TRACE;

SHERIDAN       CLOUDY    19  14  81 CALM      30.00S
6HR MIN TEMP:  19; 6HR MAX TEMP:  20;

BUFFALO        CLOUDY    16  14  92 CALM      29.96R
6HR MIN TEMP:  16; 6HR MAX TEMP:  17;

GILLETTE       CLOUDY    17  13  84 N8        29.98R WCI   7
6HR MIN TEMP:  17; 6HR MAX TEMP:  18; 6HR PCP: TRACE;

HULETT           N/A    N/A N/A N/A MISG        N/A
NEWCASTLE      CLOUDY    18  12  79 N5        29.98R WCI  11

$$
WYZ014>020-022>026-101>103-261300-
CENTRAL WYOMING

CITY           SKY/WX    TMP DP  RH WIND       PRES   REMARKS
BIG PINEY      FAIR       2   0  91 N5        29.80S WCI  -8
6HR MIN TEMP:   2; 6HR MAX TEMP:  12; 6HR PCP: TRACE;

PINEDALE       FAIR       9   7  92 NE3       29.80S
DUBOIS         NOT AVBL
LANDER         LGT SNOW  15  13  91 CALM      29.90R FOG
6HR MIN TEMP:  15; 6HR MAX TEMP:  18; 6HR PCP:  0.03;

RIVERTON       FLURRIES  15  11  83 CALM      29.91S
6HR MIN TEMP:  14; 6HR MAX TEMP:  18; 6HR PCP:  0.01;

CASPER         LGT SNOW  13  10  88 E3        29.93R FOG
6HR MIN TEMP:   8; 6HR MAX TEMP:  16; 6HR PCP:  0.02;

DOUGLAS        LGT SNOW  14  11  87 W3        29.96R FOG
6HR MIN TEMP:  14; 6HR MAX TEMP:  18; 6HR PCP: TRACE;


$$
WYZ021-027>030-104>119-261300-
SOUTHERN WYOMING

CITY           SKY/WX    TMP DP  RH WIND       PRES   REMARKS
EVANSTON       CLOUDY    14   9  80 NE6       29.80R WCI   5
6HR MIN TEMP:  14; 6HR MAX TEMP:  15;

FORT BRIDGER   LGT SNOW  15  14  95 SE5       29.84R VSB 1   WCI   7
ROCK SPRINGS   CLOUDY    12   8  84 NE7       29.81R WCI   1
6HR MIN TEMP:  12; 6HR MAX TEMP:  14; 6HR PCP: TRACE;

DIXON          FLURRIES  19  16  86 W3        29.74R
RAWLINS        LGT SNOW  12   8  84 NE23      29.78S FOG     WCI  -7
6HR MIN TEMP:  12; 6HR MAX TEMP:  14; 6HR PCP: TRACE;

SARATOGA       FLURRIES  14  12  92 W7        29.74R WCI   4
LARAMIE        CLOUDY     4   0  83 CALM      29.76S
6HR MIN TEMP:   1; 6HR MAX TEMP:  13; 6HR PCP: TRACE;

CHEYENNE       LGT SNOW  11   8  88 N5        29.85R FOG     WCI   3
6HR MIN TEMP:  11; 6HR MAX TEMP:  15; 6HR PCP:  0.01;

TORRINGTON     LGT SNOW  17  14  88 NE6       29.97R FOG     WCI   9
6HR MIN TEMP:  16; 6HR MAX TEMP:  21; 6HR PCP: TRACE;

PINE BLUFFS    LGT SNOW  16  14  93 N8        29.90R WCI   5

$$



USA.gov is the U.S. government's official web portal to all federal, state and local government web resources and services.